Shirley, NY

11:58 AM EDT on March 27, 2017 (GMT -0400)
Brookhaven

Weather History for KHWV - November, 2013

Change the Weather History Date:

Friday, November 1, 2013

  Actual Average (KISP) Record (KISP)
Temperature  
Mean Temperature 62 °F -  
Max Temperature 66 °F 55 °F 70 °F (2006)
Min Temperature 57 °F 39 °F 30 °F (2002)
Degree Days  
Heating Degree Days 2    
Growing Degree Days 12 (Base 50)    
Moisture  
Dew Point 59 °F    
Average Humidity 88    
Maximum Humidity 100    
Minimum Humidity 78    
Precipitation  
Precipitation 0.11 in - - ()
Sea Level Pressure  
Sea Level Pressure 29.67 in    
Wind  
Wind Speed 13 mph (SW)    
Max Wind Speed 23 mph    
Max Gust Speed 38 mph    
Visibility 8 miles    
Events Rain    
Averages and records for this station are not official NWS values.
T = Trace of Precipitation, MM = Missing Value Source: NWS Daily Summary

Daily Weather History Graph

Daily Weather History Graph

Search for Another Location

Airport or City:

Trip Planner

Search our weather history database for the weather conditions in past years. The results will help you decide how hot, cold, wet, or windy it might be!

Date:

Astronomy

Nov. 01, 2013 Rise Set
Actual Time 7:22 AM EDT 5:47 PM EDT
Civil Twilight 6:53 AM EDT 6:15 PM EDT
Nautical Twilight 6:21 AM EDT 6:48 PM EDT
Astronomical Twilight 5:49 AM EDT 7:20 PM EDT
Moon 5:10 AM EDT (11/1) 4:39 PM EDT (11/1)
Length of Visible Light 11h 22m
Length of Day
10h 25m
Waning Crescent, 4% of the Moon is Illuminated
Nov 1
Waning Crescent
Nov 3
New
Nov 10
First Quarter
Nov 17
Full
Nov 25
Last Quarter

Hourly Weather History & Observations

Time (EDT) Temp. Dew Point Humidity Pressure Visibility Wind Dir Wind Speed Gust Speed Precip Events Conditions
12:25 AM 62.6 °F 60.8 °F 94% 29.85 in 8.0 mi SSW 12.7 mph 21.9 mph 0.01 in Rain Light Rain
12:56 AM 62.1 °F 60.1 °F 93% 29.83 in 8.0 mi South 13.8 mph 23.0 mph 0.02 in Rain Light Rain
1:56 AM 62.1 °F 60.1 °F 93% 29.80 in 7.0 mi SSW 15.0 mph 23.0 mph 0.00 in   Overcast
2:56 AM 62.1 °F 60.1 °F 93% 29.76 in 8.0 mi South 15.0 mph 23.0 mph N/A   Mostly Cloudy
8:56 AM 64.9 °F 61.0 °F 87% 29.66 in 8.0 mi South 18.4 mph 26.5 mph 0.00 in   Overcast
9:56 AM 64.9 °F 61.0 °F 87% 29.64 in 8.0 mi SSW 18.4 mph 33.4 mph N/A   Scattered Clouds
10:56 AM 66.0 °F 61.0 °F 84% 29.63 in 6.0 mi SSW 20.7 mph 35.7 mph 0.01 in Rain Light Rain
11:19 AM 64.4 °F 60.8 °F 88% 29.65 in 1.8 mi SW 18.4 mph 29.9 mph 0.07 in Rain Heavy Rain
11:25 AM 64.4 °F 60.8 °F 88% 29.65 in 1.5 mi SW 23.0 mph 38.0 mph 0.08 in Rain Light Rain
11:28 AM 64.4 °F 60.8 °F 88% 29.65 in 3.0 mi SW 19.6 mph 38.0 mph 0.08 in Rain Light Rain
11:36 AM 64.4 °F 60.8 °F 88% 29.65 in 9.0 mi SW 9.2 mph 28.8 mph 0.08 in Rain Light Rain
11:43 AM 64.4 °F 60.8 °F 88% 29.65 in 8.0 mi SW 9.2 mph - 0.08 in Rain Light Rain
11:56 AM 63.0 °F 60.1 °F 90% 29.65 in 9.0 mi SW 10.4 mph - 0.08 in   Overcast
12:56 PM 61.0 °F 57.0 °F 87% 29.63 in 10.0 mi SSW 8.1 mph - N/A   Overcast
1:56 PM 62.1 °F 55.0 °F 78% 29.61 in 10.0 mi SSW 12.7 mph 19.6 mph 0.00 in   Overcast
2:56 PM 62.1 °F 57.0 °F 84% 29.58 in 10.0 mi SSW 15.0 mph - 0.00 in   Overcast
3:56 PM 63.0 °F 55.9 °F 78% 29.60 in 10.0 mi SW 9.2 mph 20.7 mph N/A   Overcast
4:56 PM 62.1 °F 55.9 °F 80% 29.60 in 10.0 mi SW 11.5 mph - N/A   Partly Cloudy
5:56 PM 61.0 °F 57.0 °F 87% 29.62 in 10.0 mi SSW 12.7 mph - N/A   Partly Cloudy
6:56 PM 61.0 °F 55.9 °F 83% 29.65 in 10.0 mi SW 8.1 mph - N/A   Clear
7:56 PM 61.0 °F 55.9 °F 83% 29.67 in 10.0 mi SSW 8.1 mph - N/A   Clear
8:56 PM 61.0 °F 57.9 °F 90% 29.67 in 10.0 mi SW 8.1 mph - N/A   Clear
9:56 PM 60.1 °F 57.9 °F 93% 29.69 in 10.0 mi SW 4.6 mph - N/A   Clear
10:56 PM 59.0 °F 57.9 °F 96% 29.70 in 10.0 mi WSW 4.6 mph - N/A   Clear
11:56 PM 57.9 °F 57.9 °F 100% 29.68 in 6.0 mi Calm Calm - N/A   Clear